Weather Roundup
Issued by NWS Springfield, MO

Home | Current Version | Previous Version | Text Only | Print | Product List | Glossary On
Versions: 1 2 3 4 5 6 7 8 9 10 11 12 13 14 15 16 17 18 19 20 21 22 23 24 25 26 27 28 29 30 31 32 33 34 35 36 37 38 39 40 41 42 43 44 45 46 47 48 49 50
000
NZUS99 KSGF 242107
HRRSGF

HOURLY WEATHER
NATIONAL WEATHER SERVICE SPRINGFIELD MO
400 PM CDT FRI OCT 24 2014

......SGF CWA......

CITY           SKY/WX    TMP DP  RH WIND       PRES   REMARKS
SPRINGFIELD    PTSUNNY   74  60  61 SW12      30.05S
JOPLIN         PTSUNNY   74  61  63 SW10      30.04F
WEST PLAINS    MOSUNNY   71  57  61 SW5       30.08F
ROLLA          MOSUNNY   70  59  68 S9        30.03F
OSAGE BEACH    CLOUDY    73  57  56 S6        30.02S
BRANSON        CLOUDY    77  59  53 NW7       30.08F

......SURROUNDING SGF CWA......

CITY           SKY/WX    TMP DP  RH WIND       PRES   REMARKS
CHANUTE        CLOUDY    73  62  68 SW10      30.01F
PARSONS        CLOUDY    75  62  64 S7        30.03F
COFFEYVILLE    CLOUDY    74  62  66 S9        30.02F
EMPORIA        PTSUNNY   79  60  52 SW12      29.98F
GROVE OK       CLOUDY    75  61  60 S5        30.06S
ROGERS AR      PTSUNNY   73  59  61 SW10      30.09S
SILOAM SPRINGS CLOUDY    72  57  60 SW8       30.08F
HARRISON AR    MOSUNNY   77  59  53 W6        30.08S HAZE
NEAR YELLVILLE MOSUNNY   73  57  56 SE6       30.07F

......KANSAS AND MISSOURI......

CITY           SKY/WX    TMP DP  RH WIND       PRES   REMARKS
KANSAS CTY INT PTSUNNY   74  64  71 SW13      29.95F
DOWNTOWN KC    PTSUNNY   77  62  59 SW13      29.94F
COLUMBIA       PTSUNNY   72  60  66 S12       30.00F
SEDALIA        MOSUNNY   74  60  61 SW14      29.99F
ST JOSEPH      PTSUNNY   77  63  61 S15       29.91F
ST LOUIS       PTSUNNY   74  52  46 SW8       30.03F
SPIRIT OF STL  SUNNY     74  49  41 S7        30.01F
KIRKSVILLE     PTSUNNY   71  62  73 SW12      29.95F
WICHITA        MOSUNNY   83  61  47 SW10      29.99F
TOPEKA         CLOUDY    79  64  60 SW13      29.94F
OLATHE         PTSUNNY   75  63  66 SW12      29.97S

......TENNESSEE......

CITY           SKY/WX    TMP DP  RH WIND       PRES   REMARKS
MEMPHIS        MOSUNNY   75  52  44 CALM      30.08F
NASHVILLE      MOSUNNY   72  43  35 VRB3      30.06F

......ARKANSAS.......

CITY           SKY/WX    TMP DP  RH WIND       PRES   REMARKS
FAYETTEVILLE   PTSUNNY   72  59  63 SW10      30.08F
FT SMITH       CLOUDY    76  58  53 S3        30.07F
LITTLE ROCK    PTSUNNY   78  52  40 SW5       30.09F

......OKLAHOMA.......

CITY           SKY/WX    TMP DP  RH WIND       PRES   REMARKS
TULSA          PTSUNNY   80  62  54 S14       30.01F
PONCA CITY     SUNNY     84  62  47 SW10      30.00F
MCALESTER      PTSUNNY   80  60  50 S8        30.07F
OKLAHOMA CITY  MOSUNNY   85  61  44 S15       30.02F

......IOWA............

CITY           SKY/WX    TMP DP  RH WIND       PRES   REMARKS
DES MOINES     CLOUDY    67  61  81 SW12      29.89S
QUAD CITIES    PTSUNNY   70  53  54 S10       29.93F

......ILLINOIS........

CITY           SKY/WX    TMP DP  RH WIND       PRES   REMARKS
QUINCY         MOSUNNY   69  55  60 S10       29.97F
CHICAGO        PTSUNNY   66  46  48 W8        29.96S




USA.gov is the U.S. government's official web portal to all federal, state and local government web resources and services.